FW9992 Weather Reports


Display with metric or nautical units.
time (UTC)temp
F
wind
direction
speed
MPH
gust
MPH
rain 1hr
in
rain 24hr
in
rain mn
in
humidity
%
barometer
mb
20260507062511 50 81 6.0 9.0 0.00 0.00 0.00 40 1023.8
20260507061801 50 76 5.0 6.0 0.00 0.00 0.00 45 1023.7
20260507061122 49 68 4.0 6.0 0.00 0.00 0.00 45 1023.7
20260507060441 49 55 3.0 6.0 0.00 0.00 0.00 45 1023.6
20260507055802 50 81 4.0 6.0 0.00 0.00 0.00 44 1023.7
20260507055121 51 71 3.0 7.0 0.00 0.00 0.00 42 1023.8
20260507054442 49 79 4.0 7.0 0.00 0.00 0.00 46 1023.7
20260507053802 49 86 4.0 5.0 0.00 0.00 0.00 45 1023.7
20260507053121 49 25 2.0 4.0 0.00 0.00 0.00 46 1023.6
20260507052456 50 5 1.0 5.0 0.00 0.00 0.00 45 1023.6
20260507051816 50 305 3.0 5.0 0.00 0.00 0.00 45 1023.6
20260507051121 50 291 2.0 5.0 0.00 0.00 0.00 45 1023.5
20260507050441 50 68 3.0 5.0 0.00 0.00 0.00 45 1023.5
20260507045801 50 338 3.0 6.0 0.00 0.00 0.00 44 1023.4
20260507045122 50 20 2.0 7.0 0.00 0.00 0.00 45 1023.3
20260507044456 50 18 3.0 7.0 0.00 0.00 0.00 45 1023.3
20260507043816 50 21 3.0 7.0 0.00 0.00 0.00 44 1023.3
20260507043136 50 1 3.0 7.0 0.00 0.00 0.00 44 1023.1
20260507042441 50 338 3.0 7.0 0.00 0.00 0.00 44 1023.1
20260507041801 51 357 3.0 7.0 0.00 0.00 0.00 43 1023.0
20260507041121 51 351 3.0 8.0 0.00 0.00 0.00 43 1022.8
20260507040511 51 335 4.0 10.0 0.00 0.00 0.00 43 1022.9
20260507035801 51 335 6.0 10.0 0.00 0.00 0.00 43 1022.8
20260507035121 51 343 5.0 11.0 0.00 0.00 0.00 43 1022.8
20260507034441 51 332 5.0 11.0 0.00 0.00 0.00 43 1022.7
20260507033802 52 339 5.0 10.0 0.00 0.00 0.00 42 1022.7
20260507033151 52 342 4.0 12.0 0.00 0.00 0.00 42 1022.7
20260507032442 52 346 5.0 12.0 0.00 0.00 0.00 41 1022.6
20260507031816 52 333 5.0 10.0 0.00 0.00 0.00 41 1022.5
20260507031121 52 336 4.0 10.0 0.00 0.00 0.00 40 1022.4
20260507030456 53 348 5.0 15.0 0.00 0.00 0.00 38 1022.3
20260507025801 54 348 4.0 10.0 0.00 0.00 0.00 36 1022.2
20260507025121 54 8 3.0 8.0 0.00 0.00 0.00 36 1022.1
20260507024442 54 13 3.0 8.0 0.00 0.00 0.00 36 1022.0
20260507023801 55 5 3.0 6.0 0.00 0.00 0.00 36 1021.8
20260507023121 55 352 3.0 6.0 0.00 0.00 0.00 35 1021.8
20260507022441 55 347 3.0 5.0 0.00 0.00 0.00 35 1021.7
20260507021801 55 356 3.0 5.0 0.00 0.00 0.00 35 1021.8
20260507021122 55 8 2.0 6.0 0.00 0.00 0.00 35 1021.7
20260507020441 55 347 3.0 6.0 0.00 0.00 0.00 35 1021.6
20260507015801 55 340 2.0 6.0 0.00 0.00 0.00 36 1021.5
20260507015121 56 342 2.0 8.0 0.00 0.00 0.00 35 1021.4
20260507014511 57 338 4.0 8.0 0.00 0.00 0.00 34 1021.3
20260507013801 56 348 4.0 9.0 0.00 0.00 0.00 34 1021.4
20260507013121 57 347 5.0 10.0 0.00 0.00 0.00 34 1021.3
20260507012441 58 348 4.0 8.0 0.00 0.00 0.00 34 1021.4
20260507011801 59 328 3.0 11.0 0.00 0.00 0.00 32 1021.3
20260507011121 59 330 5.0 12.0 0.00 0.00 0.00 33 1021.2
20260507010441 60 327 4.0 12.0 0.00 0.00 0.00 32 1021.1
20260507005801 60 329 3.0 14.0 0.00 0.00 0.00 32 1021.0
20260507005121 59 312 5.0 14.0 0.00 0.00 0.00 31 1021.0
20260507004456 59 351 5.0 13.0 0.00 0.00 0.00 31 1020.9
20260507003816 59 334 5.0 13.0 0.00 0.00 0.00 32 1020.9
20260507003122 60 314 6.0 13.0 0.00 0.00 0.00 32 1020.9
20260507002456 60 332 5.0 14.0 0.00 0.00 0.00 31 1020.8
20260507001801 59 319 6.0 14.0 0.00 0.00 0.00 32 1020.9
20260507001136 60 346 3.0 17.0 0.00 0.00 0.00 33 1020.9
20260507000511 60 318 8.0 17.0 0.00 0.00 0.00 32 1020.7
20260506235801 60 29 4.0 10.0 0.00 0.00 0.00 31 1020.8
20260506235121 62 359 3.0 15.0 0.00 0.00 0.00 31 1020.6
20260506234441 60 351 6.0 15.0 0.00 0.00 0.00 32 1020.7
20260506233801 60 311 4.0 12.0 0.00 0.00 0.00 33 1020.7
20260506233121 59 349 5.0 13.0 0.00 0.00 0.00 32 1020.8
20260506232443 60 317 6.0 14.0 0.00 0.00 0.00 35 1020.5
20260506231802 60 324 7.0 17.0 0.00 0.00 0.00 32 1020.6
20260506231136 60 345 4.0 19.0 0.00 0.00 0.00 34 1020.6
20260506230511 60 341 8.0 19.0 0.00 0.00 0.00 32 1020.6
20260506225802 61 357 3.0 15.0 0.00 0.00 0.00 32 1020.5
20260506225136 60 358 5.0 11.0 0.00 0.00 0.00 33 1020.6
20260506224456 59 36 4.0 10.0 0.00 0.00 0.00 35 1020.6
20260506223801 58 318 4.0 15.0 0.00 0.00 0.00 36 1020.6
20260506223137 60 355 5.0 15.0 0.00 0.00 0.00 34 1020.6
20260506222441 60 345 7.0 24.0 0.00 0.00 0.00 35 1020.7
20260506221801 58 334 9.0 24.0 0.00 0.00 0.00 36 1020.5
20260506221121 58 359 5.0 24.0 0.00 0.00 0.00 36 1020.5
20260506220441 58 343 8.0 24.0 0.00 0.00 0.00 36 1020.7
20260506215801 58 340 6.0 21.0 0.00 0.00 0.00 37 1020.8
20260506215121 57 314 10.0 21.0 0.00 0.00 0.00 37 1020.9
20260506214456 58 333 6.0 18.0 0.00 0.00 0.00 38 1021.0
20260506213802 58 331 6.0 17.0 0.00 0.00 0.00 38 1021.0
20260506213136 57 307 4.0 22.0 0.00 0.00 0.00 40 1020.9
20260506212441 57 314 10.0 22.0 0.00 0.00 0.00 39 1021.1
20260506211801 56 313 5.0 20.0 0.00 0.00 0.00 41 1021.0
20260506211121 56 302 9.0 20.0 0.00 0.00 0.00 39 1021.1
20260506210442 56 313 9.0 15.0 0.00 0.00 0.00 40 1021.1
20260506205802 57 308 7.0 13.0 0.00 0.00 0.00 40 1021.3
20260506205121 59 349 4.0 13.0 0.00 0.00 0.00 42 1021.3
20260506204441 56 342 4.0 17.0 0.00 0.00 0.00 43 1021.0
20260506203817 55 294 9.0 19.0 0.00 0.00 0.00 40 1021.1
20260506203136 56 335 8.0 15.0 0.00 0.00 0.00 41 1021.0
20260506202456 55 320 8.0 17.0 0.00 0.00 0.00 41 1021.1
20260506201801 55 328 8.0 15.0 0.00 0.00 0.00 42 1021.1
20260506201151 55 315 8.0 16.0 0.00 0.00 0.00 42 1021.0
20260506200456 56 13 4.0 11.0 0.00 0.00 0.00 42 1021.0
20260506195801 56 329 3.0 16.0 0.00 0.00 0.00 47 1021.0
20260506195138 53 283 7.0 16.0 0.00 0.00 0.00 44 1021.0
20260506194441 55 284 7.0 18.0 0.00 0.00 0.00 43 1021.0
20260506193801 54 321 6.0 15.0 0.00 0.00 0.00 44 1021.0
20260506193123 54 278 6.0 15.0 0.00 0.00 0.00 46 1021.0
20260506192441 53 324 4.0 14.0 0.00 0.00 0.00 44 1021.0
20260506191816 53 304 7.0 17.0 0.00 0.00 0.00 45 1021.0
20260506191136 52 290 7.0 13.0 0.00 0.00 0.00 47 1020.8
20260506190442 53 349 4.0 14.0 0.00 0.00 0.00 48 1021.0
20260506185801 53 326 6.0 18.0 0.00 0.00 0.00 45 1021.0
20260506185121 52 316 9.0 16.0 0.00 0.00 0.00 47 1021.1
20260506184441 51 299 4.0 15.0 0.00 0.00 0.00 46 1021.1
20260506183801 52 313 6.0 15.0 0.00 0.00 0.00 47 1021.0
20260506183121 52 319 6.0 15.0 0.00 0.00 0.00 47 1021.2
20260506182441 53 304 4.0 15.0 0.00 0.00 0.00 45 1021.1
20260506181816 52 317 7.0 15.0 0.00 0.00 0.00 45 1021.3
20260506181121 49 295 7.0 15.0 0.00 0.00 0.00 47 1021.1
20260506180457 50 330 7.0 13.0 0.00 0.00 0.00 47 1021.2
20260506175801 51 322 7.0 15.0 0.00 0.00 0.00 48 1020.9
20260506175136 49 312 5.0 17.0 0.00 0.00 0.00 50 1021.0
20260506174457 50 343 5.0 17.0 0.00 0.00 0.00 48 1021.2
20260506173801 50 321 6.0 13.0 0.00 0.00 0.00 47 1021.0
20260506173121 49 334 4.0 13.0 0.00 0.00 0.00 49 1020.9
20260506172441 49 321 5.0 13.0 0.00 0.00 0.00 49 1020.9
20260506171801 49 349 5.0 11.0 0.00 0.00 0.00 49 1020.7
20260506171122 49 344 3.0 13.0 0.00 0.00 0.00 52 1020.8
20260506170457 47 294 6.0 15.0 0.00 0.00 0.00 52 1020.7
20260506165802 47 346 5.0 18.0 0.00 0.00 0.00 52 1020.6
20260506165136 47 313 10.0 18.0 0.00 0.00 0.00 52 1020.6
20260506164441 48 326 6.0 15.0 0.00 0.00 0.00 52 1020.5
20260506163817 49 326 5.0 12.0 0.00 0.00 0.00 52 1020.5
20260506163122 47 324 7.0 13.0 0.00 0.00 0.00 52 1020.6
20260506162457 47 322 4.0 12.0 0.00 0.00 0.00 53 1020.4
20260506161802 47 351 5.0 14.0 0.00 0.00 0.00 54 1020.3
20260506161121 46 335 7.0 14.0 0.00 0.00 0.00 53 1020.3
20260506160441 46 333 5.0 13.0 0.00 0.00 0.00 53 1020.3
20260506155801 45 346 7.0 17.0 0.00 0.00 0.00 52 1020.2
20260506155122 45 345 4.0 13.0 0.00 0.00 0.00 55 1020.2
20260506154511 45 337 6.0 13.0 0.00 0.00 0.00 54 1020.2
20260506153801 45 340 6.0 15.0 0.00 0.00 0.00 54 1020.1
20260506153121 45 344 4.0 13.0 0.00 0.00 0.00 55 1020.1
20260506152456 45 339 6.0 13.0 0.00 0.00 0.00 54 1020.0
20260506151816 44 350 6.0 13.0 0.00 0.00 0.00 55 1020.0
20260506151136 44 344 4.0 14.0 0.00 0.00 0.00 57 1019.9
20260506150442 44 336 5.0 12.0 0.00 0.00 0.00 56 1019.8
20260506145801 43 346 6.0 13.0 0.00 0.00 0.00 55 1019.7
20260506145137 43 341 6.0 14.0 0.00 0.00 0.00 56 1019.8
20260506144441 42 341 7.0 14.0 0.00 0.00 0.00 57 1019.6
20260506143801 42 356 4.0 12.0 0.00 0.00 0.00 60 1019.6
20260506143121 41 358 4.0 10.0 0.00 0.00 0.00 61 1019.6
20260506142442 40 358 4.0 10.0 0.00 0.00 0.00 62 1019.4
20260506141801 40 2 4.0 10.0 0.00 0.00 0.00 62 1019.3
20260506141151 39 16 4.0 9.0 0.00 0.00 0.00 63 1019.4
20260506140511 39 11 3.0 8.0 0.00 0.00 0.00 63 1019.3
20260506135816 39 17 3.0 12.0 0.00 0.00 0.00 64 1019.3
20260506135121 39 13 3.0 8.0 0.00 0.00 0.00 65 1019.3
20260506134456 39 30 3.0 9.0 0.00 0.00 0.00 65 1019.3
20260506133801 38 27 3.0 10.0 0.00 0.00 0.00 65 1019.2
20260506133151 38 32 3.0 10.0 0.00 0.00 0.00 66 1019.1
20260506132511 38 17 3.0 11.0 0.00 0.00 0.00 67 1018.9
20260506131801 38 19 4.0 9.0 0.00 0.00 0.00 67 1019.0
20260506131121 37 30 3.0 9.0 0.00 0.00 0.00 68 1018.8
20260506130442 37 35 3.0 9.0 0.00 0.00 0.00 68 1018.8
20260506125831 37 33 3.0 10.0 0.00 0.00 0.00 69 1018.7
20260506125121 37 26 3.0 8.0 0.00 0.00 0.00 69 1018.6
20260506124441 36 35 3.0 7.0 0.00 0.00 0.00 69 1018.5
20260506123801 36 34 3.0 6.0 0.00 0.00 0.00 69 1018.5
20260506123136 36 32 2.0 6.0 0.00 0.00 0.00 69 1018.5
20260506122441 36 46 2.0 6.0 0.00 0.00 0.00 69 1018.4
20260506121831 37 31 3.0 6.0 0.00 0.00 0.00 69 1018.1
20260506121137 37 13 3.0 6.0 0.00 0.00 0.00 69 1018.4
20260506120511 36 30 2.0 9.0 0.00 0.00 0.00 70 1018.3
20260506115802 36 7 3.0 9.0 0.00 0.00 0.00 69 1018.1
20260506115121 37 9 4.0 7.0 0.00 0.00 0.00 69 1018.1
20260506114441 37 358 3.0 8.0 0.00 0.00 0.00 69 1018.1
20260506113817 36 4 3.0 7.0 0.00 0.00 0.00 69 1018.2
20260506113122 37 1 4.0 8.0 0.00 0.00 0.00 69 1018.2
20260506112441 37 355 4.0 9.0 0.00 0.00 0.00 68 1018.1
20260506111801 37 351 5.0 9.0 0.00 0.00 0.00 68 1018.0
20260506111121 37 353 4.0 9.0 0.00 0.00 0.00 68 1017.9
20260506110441 37 358 4.0 11.0 0.00 0.00 0.00 68 1017.9
20260506105802 37 359 4.0 10.0 0.00 0.00 0.00 67 1017.9
20260506105121 37 6 5.0 10.0 0.00 0.00 0.00 67 1017.9
20260506104442 37 346 5.0 10.0 0.00 0.00 0.00 67 1017.9
20260506103802 37 359 4.0 11.0 0.00 0.00 0.00 67 1017.8
20260506103122 37 355 4.0 11.0 0.00 0.00 0.00 67 1017.8
20260506102456 37 2 4.0 11.0 0.00 0.00 0.00 67 1017.8
20260506101801 37 7 5.0 11.0 0.00 0.00 0.00 67 1017.9
20260506101136 37 350 5.0 13.0 0.00 0.00 0.00 67 1017.9
20260506100441 37 8 5.0 13.0 0.00 0.00 0.00 68 1017.7
20260506095801 37 15 4.0 10.0 0.00 0.00 0.00 68 1017.7
20260506095136 37 15 4.0 11.0 0.00 0.00 0.00 68 1017.7
20260506094442 37 360 5.0 12.0 0.00 0.00 0.00 67 1017.6
20260506093816 37 1 4.0 12.0 0.00 0.00 0.00 69 1017.5
20260506093122 37 1 5.0 12.0 0.00 0.00 0.00 69 1017.5
20260506092441 38 346 6.0 13.0 0.00 0.00 0.00 69 1017.4
20260506091816 38 344 6.0 13.0 0.00 0.00 0.00 69 1017.6
20260506091137 38 348 6.0 12.0 0.00 0.00 0.00 69 1017.5
20260506090456 38 340 7.0 11.0 0.00 0.00 0.00 70 1017.6
20260506085801 38 339 5.0 10.0 0.00 0.00 0.00 71 1017.5
20260506085136 37 328 5.0 10.0 0.00 0.00 0.00 71 1017.5
20260506084441 38 338 6.0 11.0 0.00 0.00 0.00 71 1017.5
20260506083831 37 343 5.0 11.0 0.00 0.00 0.00 71 1017.5
20260506083121 38 337 5.0 11.0 0.00 0.00 0.00 71 1017.6
20260506082442 37 338 5.0 11.0 0.00 0.00 0.00 72 1017.4
20260506081801 38 333 5.0 11.0 0.00 0.00 0.00 72 1017.5
20260506081121 37 327 5.0 9.0 0.00 0.00 0.00 72 1017.5
20260506080456 37 335 4.0 10.0 0.00 0.00 0.00 73 1017.6
20260506073121 38 317 6.0 10.0 0.00 0.00 0.00 73 1017.5
20260506072441 38 314 6.0 10.0 0.00 0.00 0.00 73 1017.5
20260506071802 38 313 6.0 11.0 0.00 0.00 0.00 73 1017.4
20260506071136 38 301 6.0 12.0 0.00 0.00 0.00 72 1017.5
20260506070442 38 316 6.0 12.0 0.00 0.00 0.00 71 1017.5